Location: Newark
(43.0000°N, 1.6781°W)
Time: 00:31:07
(UTC+00:00)

LilacSat-2 - Pass Details

Date: 08 December 2022
Orbit: 504 x 521 km, 97.5° (Epoch: 08 February)

Event Time Altitude Azimuth Distance (km) Brightness Sun altitude
Rises 18:21:26 0° 212° (SSW) 2,630 ? -19.3°
Reaches altitude 10° 18:24:35 10° 241° (WSW) 1,744 ? -19.9°
Maximum altitude 18:26:19 13° 269° (W) 1,575 ? -20.2°
Drops below altitude 10° 18:28:03 10° 297° (WNW) 1,746 ? -20.5°
Sets 18:31:13 0° 326° (NW) 2,634 ? -21.1°
